C2018 KSDM-KSDM

Flight info

Callsign C2018
Flight time N/A
Altitude 18000
Route VFR
Aircraft C30J/M-SDE3FGHIRWY/L

Departure

Time 2026-04-25 02:54
Airport Brown Field Municipal Airport (KSDM)

Arrival

Time N/A
Airport Brown Field Municipal Airport (KSDM)
Time Latitude Longitude Altitude Speed Heading
2026-04-25 02:37 32.57146 -116.99223 520 ft 0 kts 166°
2026-04-25 02:42 32.57116 -116.99213 521 ft 6 kts 163°
2026-04-25 02:42 32.57146 -116.99224 520 ft 0 kts 163°
2026-04-25 02:42 32.57143 -116.99223 520 ft 5 kts 163°
2026-04-25 02:43 32.57137 -116.99221 520 ft 0 kts 163°
2026-04-25 02:43 32.57123 -116.99215 521 ft 2 kts 162°
2026-04-25 02:43 32.57120 -116.99214 521 ft 0 kts 162°
2026-04-25 02:44 32.57094 -116.99205 521 ft 7 kts 162°
2026-04-25 02:44 32.57102 -116.99208 521 ft 5 kts 162°
2026-04-25 02:44 32.57110 -116.99211 521 ft 1 kts 162°
2026-04-25 02:44 32.57111 -116.99211 521 ft 0 kts 162°
2026-04-25 02:45 32.57149 -116.99224 521 ft 296 kts 166°
2026-04-25 02:47 32.57130 -116.99194 521 ft 9 kts 91°
2026-04-25 02:47 32.57141 -116.99065 520 ft 18 kts 103°
2026-04-25 02:48 32.57130 -116.98891 519 ft 26 kts 94°
2026-04-25 02:48 32.57117 -116.98652 525 ft 31 kts 92°
2026-04-25 02:48 32.57067 -116.98411 529 ft 31 kts 100°
2026-04-25 02:48 32.57046 -116.98146 532 ft 34 kts 96°
2026-04-25 02:49 32.57023 -116.97862 527 ft 36 kts 95°
2026-04-25 02:49 32.57002 -116.97554 521 ft 39 kts 97°
2026-04-25 02:49 32.56975 -116.97296 518 ft 23 kts 96°
2026-04-25 02:49 32.56957 -116.97082 522 ft 29 kts 92°
2026-04-25 02:50 32.56955 -116.96896 525 ft 11 kts 87°
2026-04-25 02:50 32.57034 -116.96838 527 ft 17 kts
2026-04-25 02:50 32.57079 -116.96839 528 ft 0 kts 358°
2026-04-25 02:53 32.57104 -116.96840 528 ft 10 kts 358°
2026-04-25 02:53 32.57172 -116.96904 529 ft 17 kts 285°
2026-04-25 02:53 32.57217 -116.97418 528 ft 115 kts 275°
2026-04-25 02:53 32.57308 -116.98558 886 ft 148 kts 275°
2026-04-25 02:54 32.57409 -116.99812 1638 ft 159 kts 274°
2026-04-25 02:54 32.57522 -117.01233 2088 ft 180 kts 273°
2026-04-25 02:54 32.57390 -117.02728 2764 ft 188 kts 254°
2026-04-25 02:54 32.56891 -117.04217 3464 ft 201 kts 245°
2026-04-25 02:55 32.56309 -117.05701 4053 ft 219 kts 246°
2026-04-25 02:55 32.55741 -117.07518 4206 ft 251 kts 256°
2026-04-25 02:55 32.55434 -117.09663 4223 ft 276 kts 263°
2026-04-25 02:55 32.55244 -117.12001 4208 ft 293 kts 265°
2026-04-25 02:56 32.55132 -117.14447 4193 ft 302 kts 272°
2026-04-25 02:56 32.55546 -117.16912 4197 ft 308 kts 288°
2026-04-25 02:56 32.56453 -117.19223 4182 ft 312 kts 297°
2026-04-25 02:56 32.57517 -117.21478 4187 ft 314 kts 298°
2026-04-25 02:57 32.58614 -117.23718 4185 ft 315 kts 299°
2026-04-25 02:57 32.59732 -117.25952 4178 ft 315 kts 299°
2026-04-25 02:57 32.60850 -117.28185 4189 ft 315 kts 300°
2026-04-25 02:57 32.61973 -117.30424 4186 ft 317 kts 300°
2026-04-25 02:58 32.63094 -117.32668 4181 ft 312 kts 300°
2026-04-25 02:58 32.64117 -117.34875 4174 ft 299 kts 292°
2026-04-25 02:58 32.64837 -117.37156 4181 ft 292 kts 290°
2026-04-25 02:58 32.65521 -117.39362 4180 ft 287 kts 289°
2026-04-25 02:59 32.66215 -117.41567 4168 ft 284 kts 294°
2026-04-25 02:59 32.67196 -117.43596 4180 ft 283 kts 300°
2026-04-25 02:59 32.68207 -117.45591 4180 ft 281 kts 300°
2026-04-25 02:59 32.69205 -117.47584 4173 ft 280 kts 299°
2026-04-25 03:00 32.70201 -117.49562 4170 ft 278 kts 299°
2026-04-25 03:00 32.71192 -117.51527 4174 ft 276 kts 300°
2026-04-25 03:00 32.72178 -117.53481 4178 ft 275 kts 300°
2026-04-25 03:00 32.73156 -117.55431 4180 ft 275 kts 300°
2026-04-25 03:01 32.74128 -117.57385 4184 ft 275 kts 299°
2026-04-25 03:01 32.75101 -117.59348 4179 ft 275 kts 299°
2026-04-25 03:01 32.76080 -117.61298 4174 ft 275 kts 300°
2026-04-25 03:01 32.77066 -117.63249 4176 ft 275 kts 299°
2026-04-25 03:02 32.78048 -117.65186 4175 ft 274 kts 300°
2026-04-25 03:02 32.78906 -117.67196 4177 ft 272 kts 290°
2026-04-25 03:02 32.79975 -117.69033 4177 ft 275 kts 318°
2026-04-25 03:02 32.81643 -117.70164 4173 ft 278 kts 332°
2026-04-25 03:03 32.83389 -117.71145 4179 ft 278 kts 332°
2026-04-25 03:03 32.85135 -117.72134 4178 ft 278 kts 333°
2026-04-25 03:03 32.86886 -117.73126 4181 ft 279 kts 333°
2026-04-25 03:03 32.88635 -117.74119 4178 ft 279 kts 333°
2026-04-25 03:04 32.90344 -117.75210 4173 ft 278 kts 324°
2026-04-25 03:04 32.91579 -117.76918 4176 ft 274 kts 293°
2026-04-25 03:04 32.91865 -117.79129 4182 ft 273 kts 263°
2026-04-25 03:05 32.89666 -117.82702 4172 ft 278 kts 225°
2026-04-25 03:05 32.88559 -117.84546 4173 ft 274 kts 245°
2026-04-25 03:05 32.87921 -117.86676 4175 ft 273 kts 256°
2026-04-25 03:05 32.87565 -117.88894 4176 ft 273 kts 262°
2026-04-25 03:06 32.87379 -117.91137 4176 ft 273 kts 266°
2026-04-25 03:06 32.87290 -117.93394 4179 ft 273 kts 268°
2026-04-25 03:06 32.87257 -117.95645 4174 ft 272 kts 269°
2026-04-25 03:06 32.87257 -117.97895 4173 ft 271 kts 270°
2026-04-25 03:07 32.87274 -118.00139 4179 ft 272 kts 271°
2026-04-25 03:07 32.87301 -118.02388 4180 ft 272 kts 271°
2026-04-25 03:07 32.87334 -118.04608 4175 ft 273 kts 271°
2026-04-25 03:07 32.87371 -118.06890 4003 ft 278 kts 271°
2026-04-25 03:08 32.87409 -118.09207 3818 ft 281 kts 271°
2026-04-25 03:08 32.87449 -118.11531 3623 ft 281 kts 272°
2026-04-25 03:08 32.87489 -118.13850 3571 ft 278 kts 272°
2026-04-25 03:08 32.87529 -118.16134 3579 ft 274 kts 272°
2026-04-25 03:09 32.87568 -118.18387 3585 ft 271 kts 271°
2026-04-25 03:09 32.87605 -118.20623 3578 ft 271 kts 272°
2026-04-25 03:09 32.87642 -118.22863 3578 ft 271 kts 271°
2026-04-25 03:09 32.87679 -118.25103 3579 ft 270 kts 272°
2026-04-25 03:10 32.87716 -118.27338 3575 ft 271 kts 272°
2026-04-25 03:10 32.87752 -118.29582 3579 ft 271 kts 271°
2026-04-25 03:10 32.87787 -118.31828 3588 ft 271 kts 271°
2026-04-25 03:10 32.87822 -118.34072 3577 ft 271 kts 271°
2026-04-25 03:11 32.87857 -118.36316 3582 ft 271 kts 271°
2026-04-25 03:11 32.87891 -118.38555 3577 ft 270 kts 272°
2026-04-25 03:11 32.87924 -118.40779 3578 ft 268 kts 272°
2026-04-25 03:11 32.87916 -118.42989 3558 ft 267 kts 267°
2026-04-25 03:12 32.87653 -118.45160 3593 ft 266 kts 259°
2026-04-25 03:12 32.87216 -118.47311 3591 ft 268 kts 257°
2026-04-25 03:12 32.86750 -118.49478 3594 ft 278 kts 257°
2026-04-25 03:12 32.86257 -118.51767 3583 ft 291 kts 257°
2026-04-25 03:13 32.85741 -118.54135 3582 ft 298 kts 257°
2026-04-25 03:13 32.85213 -118.56542 3586 ft 303 kts 257°
2026-04-25 03:13 32.84677 -118.58975 3582 ft 306 kts 257°
2026-04-25 03:13 32.84134 -118.61435 3588 ft 308 kts 257°
2026-04-25 03:14 32.83591 -118.63897 3590 ft 309 kts 256°
2026-04-25 03:14 32.83043 -118.66373 3585 ft 310 kts 256°
2026-04-25 03:14 32.82493 -118.68852 3584 ft 310 kts 256°
2026-04-25 03:14 32.81943 -118.71330 3585 ft 310 kts 257°
2026-04-25 03:15 32.81392 -118.73813 3588 ft 309 kts 257°
2026-04-25 03:15 32.80842 -118.76284 3602 ft 310 kts 257°
2026-04-25 03:15 32.80285 -118.78794 2979 ft 325 kts 258°
2026-04-25 03:15 32.79693 -118.81456 2362 ft 334 kts 258°
2026-04-25 03:16 32.79120 -118.84012 2238 ft 307 kts 257°
2026-04-25 03:16 32.78589 -118.86371 2350 ft 288 kts 257°
2026-04-25 03:16 32.78079 -118.88659 2160 ft 286 kts 258°
2026-04-25 03:16 32.77569 -118.90950 1880 ft 286 kts 258°
2026-04-25 03:17 32.77065 -118.93197 1865 ft 279 kts 258°
2026-04-25 03:17 32.76576 -118.95378 2063 ft 269 kts 258°
2026-04-25 03:17 32.76100 -118.97496 2208 ft 263 kts 258°
2026-04-25 03:17 32.75627 -118.99591 2256 ft 262 kts 257°
2026-04-25 03:18 32.75156 -119.01683 2280 ft 263 kts 258°
2026-04-25 03:18 32.74687 -119.03778 2294 ft 263 kts 258°
2026-04-25 03:18 32.74216 -119.05879 2302 ft 264 kts 258°
2026-04-25 03:18 32.73740 -119.07990 2298 ft 265 kts 257°
2026-04-25 03:19 32.73258 -119.10110 2293 ft 266 kts 258°
2026-04-25 03:19 32.72780 -119.12236 2294 ft 266 kts 257°
2026-04-25 03:19 32.72303 -119.14354 2299 ft 266 kts 258°
2026-04-25 03:19 32.71823 -119.16479 2295 ft 267 kts 257°
2026-04-25 03:20 32.71342 -119.18603 2292 ft 267 kts 258°
2026-04-25 03:20 32.70859 -119.20732 2287 ft 268 kts 258°
2026-04-25 03:20 32.70375 -119.22867 2297 ft 267 kts 258°
2026-04-25 03:20 32.69894 -119.24986 2292 ft 266 kts 258°
2026-04-25 03:21 32.69412 -119.27106 2301 ft 265 kts 257°
2026-04-25 03:21 32.68931 -119.29220 2299 ft 265 kts 257°
2026-04-25 03:21 32.68448 -119.31335 2297 ft 266 kts 258°
2026-04-25 03:21 32.67964 -119.33457 2299 ft 265 kts 258°
2026-04-25 03:22 32.67482 -119.35567 2304 ft 264 kts 258°
2026-04-25 03:22 32.67002 -119.37669 2304 ft 264 kts 258°
2026-04-25 03:22 32.66520 -119.39774 2307 ft 265 kts 257°
2026-04-25 03:22 32.66042 -119.41866 2310 ft 266 kts 258°
2026-04-25 03:23 32.65556 -119.43984 2300 ft 267 kts 258°
2026-04-25 03:23 32.65070 -119.46105 2303 ft 266 kts 258°
2026-04-25 03:23 32.64585 -119.48218 2312 ft 266 kts 258°
2026-04-25 03:23 32.64098 -119.50342 2310 ft 267 kts 258°
2026-04-25 03:24 32.63615 -119.52438 2288 ft 250 kts 258°
2026-04-25 03:24 32.63174 -119.54335 2301 ft 228 kts 259°
2026-04-25 03:24 32.62769 -119.56090 2303 ft 221 kts 259°
2026-04-25 03:24 32.62368 -119.57842 2303 ft 217 kts 259°
2026-04-25 03:25 32.61989 -119.59476 2304 ft 194 kts 260°
2026-04-25 03:25 32.61648 -119.60939 2299 ft 174 kts 259°
2026-04-25 03:25 32.61341 -119.62262 2294 ft 159 kts 259°
2026-04-25 03:25 32.61060 -119.63480 2300 ft 152 kts 260°
2026-04-25 03:26 32.60779 -119.64724 2513 ft 158 kts 259°
2026-04-25 03:26 32.60490 -119.65989 2717 ft 166 kts 260°
2026-04-25 03:26 32.60175 -119.67394 2632 ft 186 kts 259°
2026-04-25 03:26 32.59851 -119.68785 2575 ft 159 kts 259°
2026-04-25 03:27 32.59572 -119.69951 2583 ft 135 kts 260°
2026-04-25 03:27 32.59329 -119.70970 2604 ft 123 kts 261°
2026-04-25 03:27 32.59146 -119.71922 2601 ft 116 kts 268°
2026-04-25 03:27 32.59109 -119.72914 2619 ft 125 kts 275°
2026-04-25 03:28 32.59162 -119.73982 2622 ft 134 kts 277°
2026-04-25 03:28 32.59248 -119.75118 2622 ft 142 kts 279°
2026-04-25 03:28 32.59346 -119.76314 2625 ft 150 kts 279°
2026-04-25 03:28 32.59446 -119.77571 2616 ft 156 kts 278°
2026-04-25 03:29 32.59444 -119.78867 2600 ft 159 kts 259°
2026-04-25 03:29 32.58786 -119.79861 2596 ft 158 kts 216°
2026-04-25 03:29 32.57748 -119.80229 2603 ft 154 kts 195°
2026-04-25 03:29 32.56705 -119.80369 2599 ft 148 kts 192°
2026-04-25 03:30 32.55712 -119.80441 2610 ft 142 kts 191°
2026-04-25 03:30 32.54727 -119.80499 2598 ft 137 kts 192°
2026-04-25 03:30 32.53807 -119.80530 2598 ft 133 kts 184°
2026-04-25 03:30 32.52953 -119.80156 2596 ft 133 kts 142°
2026-04-25 03:31 32.52302 -119.79130 1726 ft 192 kts 113°
2026-04-25 03:31 32.51957 -119.77584 1649 ft 178 kts 94°
2026-04-25 03:31 32.51824 -119.76275 2152 ft 145 kts 91°
2026-04-25 03:31 32.51754 -119.75064 2515 ft 137 kts 85°
2026-04-25 03:32 32.52009 -119.74016 2505 ft 145 kts 21°
2026-04-25 03:32 32.53017 -119.73940 2498 ft 144 kts 346°
2026-04-25 03:32 32.53797 -119.74119 3300 ft 109 kts 326°
2026-04-25 03:32 32.54118 -119.74974 3206 ft 139 kts 264°
2026-04-25 03:33 32.53459 -119.75985 2995 ft 183 kts 214°
2026-04-25 03:33 32.52094 -119.76122 2768 ft 218 kts 168°
2026-04-25 03:33 32.50872 -119.75084 2588 ft 212 kts 123°
2026-04-25 03:33 32.50581 -119.73592 2572 ft 166 kts 78°
2026-04-25 03:34 32.50779 -119.72429 2521 ft 125 kts 68°
2026-04-25 03:34 32.51064 -119.71353 1806 ft 136 kts 61°
2026-04-25 03:34 32.51434 -119.70270 1613 ft 137 kts 61°
2026-04-25 03:34 32.51730 -119.69288 1691 ft 121 kts 65°
2026-04-25 03:35 32.52008 -119.68281 1448 ft 127 kts 64°
2026-04-25 03:35 32.52316 -119.67193 1524 ft 157 kts 64°
2026-04-25 03:35 32.52587 -119.66126 2897 ft 101 kts 66°
2026-04-25 03:35 32.52886 -119.65243 3277 ft 163 kts 59°
2026-04-25 03:36 32.53223 -119.63593 3096 ft 244 kts 91°
2026-04-25 03:36 32.52653 -119.61635 3486 ft 267 kts 127°
2026-04-25 03:36 32.51108 -119.60458 4012 ft 272 kts 165°
2026-04-25 03:36 32.49365 -119.60221 5315 ft 229 kts 189°
2026-04-25 03:37 32.47757 -119.60548 5920 ft 255 kts 199°
2026-04-25 03:37 32.46029 -119.61429 6081 ft 269 kts 218°
2026-04-25 03:37 32.45141 -119.62468 6075 ft 279 kts 243°
2026-04-25 03:37 32.44922 -119.64540 7291 ft 243 kts 281°
2026-04-25 03:38 32.45953 -119.67045 7747 ft 269 kts 308°
2026-04-25 03:38 32.46901 -119.68046 8147 ft 274 kts 322°
2026-04-25 03:38 32.48603 -119.68861 9478 ft 238 kts 351°
2026-04-25 03:38 32.50338 -119.68812 10028 ft 279 kts
2026-04-25 03:39 32.52209 -119.67870 10353 ft 293 kts 34°
2026-04-25 03:39 32.53448 -119.66185 11728 ft 279 kts 56°
2026-04-25 03:39 32.53890 -119.63838 11842 ft 303 kts 101°
2026-04-25 03:39 32.53048 -119.61592 12170 ft 306 kts 137°
2026-04-25 03:40 32.51266 -119.60331 12342 ft 304 kts 171°
2026-04-25 03:40 32.49225 -119.60418 12266 ft 304 kts 203°
2026-04-25 03:40 32.47453 -119.61886 11767 ft 317 kts 233°
2026-04-25 03:40 32.46306 -119.64187 10932 ft 336 kts 248°
2026-04-25 03:41 32.45630 -119.66900 9507 ft 362 kts 261°
2026-04-25 03:41 32.45980 -119.69892 8535 ft 371 kts 290°
2026-04-25 03:41 32.47228 -119.72519 8021 ft 367 kts 306°
2026-04-25 03:41 32.49218 -119.74412 7259 ft 374 kts 334°
2026-04-25 03:42 32.51723 -119.74841 7396 ft 361 kts
2026-04-25 03:42 32.53662 -119.73387 8885 ft 318 kts 51°
2026-04-25 03:42 32.54682 -119.71048 9009 ft 323 kts 75°
2026-04-25 03:42 32.54524 -119.68553 9753 ft 301 kts 117°
2026-04-25 03:43 32.53228 -119.66590 9271 ft 317 kts 147°
2026-04-25 03:43 32.51244 -119.65811 9097 ft 282 kts 181°
2026-04-25 03:43 32.49496 -119.66248 9246 ft 234 kts 217°
2026-04-25 03:43 32.48604 -119.67590 9516 ft 199 kts 255°
2026-04-25 03:44 32.48698 -119.69238 8738 ft 218 kts 292°
2026-04-25 03:44 32.49798 -119.70583 7999 ft 240 kts 330°
2026-04-25 03:44 32.51412 -119.70883 7878 ft 235 kts
2026-04-25 03:44 32.52858 -119.70047 7685 ft 237 kts 41°